Flight Track Log - Related Links

Times and Time Zones

All times are in EDT time to prevent confusion due to time zone crossing. See the EJA929 flight status page for this flight to view local times or setup timezone preferences in your user account.

Time Position Orientation Groundspeed Altitude Reporting Facility
EDT Latitude Longitude Course Direction KTS MPH feet Rate Location/Type
Sat 12:19:23 PM 40.4772 -107.1994 239° Southwest 17 20 6,500  Level Denver Center
Sat 12:20:25 PM 40.4825 -107.2217 287° West 95 109 6,500 1,403 Level Denver Center
Sat 12:21:27 PM 40.4769 -107.2944 264° West 173 199 9,400 2,903 Climbing Denver Center
Sat 12:22:29 PM 40.4419 -107.3869 244° Southwest 273 314 12,500 3,460 Climbing Denver Center
Sat 12:23:44 PM 40.3844 -107.5119 239° Southwest 314 361 17,300 3,547 Climbing Denver Center
Sat 12:24:00 PM 39.9979 -108.3052 240° Southwest  Level Estimated
Sat 12:24:46 PM 40.3403 -107.6061 238° Southwest 317 365 20,600  Level Denver Center
Sat 12:25:00 PM 39.9368 -108.4401 239° Southwest  Level Estimated
Sat 12:25:48 PM 40.2875 -107.7206 239° Southwest 327 376 22,700  Level Denver Center
Sat 12:26:50 PM 40.2361 -107.8317 239° Southwest 364 419 23,900 1,306 Climbing Denver Center
Sat 12:27:52 PM 40.1717 -107.9689 238° Southwest 393 452 25,400 1,306 Climbing Denver Center
Sat 12:28:54 PM 40.1125 -108.0931 238° Southwest 414 476 26,600 1,306 Climbing Denver Center
Sat 12:29:56 PM 40.0436 -108.2411 239° Southwest 425 489 28,100 1,306 Climbing Denver Center
Sat 12:30:58 PM 39.9819 -108.3728 239° Southwest 440 506 29,300 1,161 Climbing Denver Center
Sat 12:31:29 PM 39.9494 -108.4403 238° Southwest 448 516 29,900 1,355 Climbing Salt Center
Sat 12:32:31 PM 39.8747 -108.5989 238° Southwest 462 532 31,400 1,419 Climbing Salt Center
Sat 12:33:02 PM 39.8422 -108.6678 238° Southwest 466 536 32,100 1,548 Climbing Denver Center
Sat 12:34:04 PM 39.7669 -108.8272 238° Southwest 471 542 33,800 1,500 Climbing Denver Center
Sat 12:35:06 PM 39.7006 -108.9653 238° Southwest 479 551 35,200 1,488 Climbing Denver Center
Sat 12:36:09 PM 39.6217 -109.1253 237° Southwest 476 548 36,900 1,488 Climbing Denver Center
Sat 12:37:11 PM 39.5536 -109.2628 237° Southwest 476 548 38,300 1,306 Climbing Denver Center
Sat 12:38:13 PM 39.4753 -109.4247 238° Southwest 476 548 39,600 1,109 Climbing Denver Center
Sat 12:38:43 PM 39.4419 -109.4947 238° Southwest 476 548 40,000 261 Climbing Salt Center
Sat 12:39:45 PM 39.3722 -109.6356 237° Southwest 483 556 40,000  Level Salt Center
Sat 12:40:47 PM 39.2925 -109.7972 238° Southwest 479 551 40,000  Level Salt Center
Sat 12:41:50 PM 39.2247 -109.9344 238° Southwest 475 547 40,000  Level Salt Center
Sat 12:42:51 PM 39.1469 -110.0914 237° Southwest 466 536 40,000  Level Salt Center
Sat 12:43:23 PM 39.1119 -110.1569 235° Southwest 461 531 40,000  Level Denver Center
Sat 12:44:25 PM 39.0367 -110.3108 238° Southwest 454 522 40,000  Level Denver Center
Sat 12:44:56 PM 39.0039 -110.3764 237° Southwest 455 524 40,000  Level Salt Center
Sat 12:45:27 PM 38.9717 -110.4406 237° Southwest 452 520 40,000  Level Denver Center
Sat 12:46:29 PM 38.9067 -110.5700 237° Southwest 451 519 40,000  Level Denver Center
Sat 12:47:00 PM 38.8614 -110.6556 236° Southwest 451 519 40,000  Level Salt Center
Sat 12:48:02 PM 38.7967 -110.7853 237° Southwest 451 519 40,000  Level Salt Center
Sat 12:49:04 PM 38.7183 -110.9356 236° Southwest 453 521 40,000  Level Salt Center
Sat 12:50:06 PM 38.6478 -111.0739 237° Southwest 450 518 40,000  Level Salt Center
Sat 12:51:08 PM 38.5783 -111.2075 236° Southwest 452 520 40,000  Level Salt Center
Sat 12:52:10 PM 38.5089 -111.3428 237° Southwest 455 524 40,000  Level Salt Center
Sat 12:53:12 PM 38.4383 -111.4778 236° Southwest 458 527 40,000  Level Salt Center
Sat 12:54:14 PM 38.3678 -111.6133 236° Southwest 459 528 40,000  Level Salt Center
Sat 12:55:16 PM 38.2972 -111.7489 236° Southwest 460 529 40,000  Level Salt Center
Sat 12:56:18 PM 38.2106 -111.9111 236° Southwest 462 532 40,000  Level Salt Center
Sat 12:57:20 PM 38.1392 -112.0456 236° Southwest 461 531 40,000 -76 Level Salt Center
Sat 12:58:56 PM 38.0233 -112.2614 236° Southwest 464 534 39,800 -456 Descending Los Center
Sat 12:59:58 PM 37.9506 -112.3961 236° Southwest 464 534 38,800 -878 Descending Los Center
Sat 01:00:59 PM 37.8919 -112.5053 236° Southwest 466 536 38,000 -390 Descending Los Center
Sat 01:02:01 PM 37.8044 -112.6394 230° Southwest 499 574 38,000  Level Los Center
Sat 01:03:04 PM 37.6936 -112.7819 226° Southwest 477 549 38,000  Level Los Center
Sat 01:04:06 PM 37.5906 -112.9119 225° Southwest 464 534 38,000  Level Los Center
Sat 01:05:08 PM 37.5019 -113.0206 224° Southwest 456 525 38,000  Level Los Center
Sat 01:06:10 PM 37.4139 -113.1308 225° Southwest 449 517 38,000  Level Los Center
Sat 01:07:12 PM 37.3069 -113.2639 225° Southwest 450 518 38,000  Level Los Center
Sat 01:08:14 PM 37.2172 -113.3744 224° Southwest 452 520 38,000  Level Los Center
Sat 01:09:16 PM 37.1278 -113.4856 225° Southwest 453 521 38,000  Level Los Center
Sat 01:10:19 PM 37.0375 -113.5958 224° Southwest 454 522 38,000  Level Los Center
Sat 01:11:21 PM 36.9475 -113.7075 225° Southwest 455 524 38,000  Level Los Center
Sat 01:12:23 PM 36.8578 -113.8178 225° Southwest 454 522 38,000  Level Los Center
Sat 01:13:25 PM 36.7483 -113.9503 224° Southwest 456 525 38,000  Level Los Center
Sat 01:14:26 PM 36.6761 -114.0400 225° Southwest 457 526 38,000  Level Los Center
Sat 01:15:29 PM 36.5697 -114.1719 225° Southwest 451 519 38,000  Level Los Center
Sat 01:16:31 PM 36.4811 -114.2758 223° Southwest 455 524 38,000  Level Los Center
Sat 01:17:33 PM 36.3917 -114.3853 225° Southwest 452 520 38,000  Level Los Center
Sat 01:18:35 PM 36.2828 -114.5181 225° Southwest 454 522 38,000  Level Los Center
Sat 01:19:37 PM 36.1936 -114.6272 225° Southwest 450 518 38,000  Level Los Center
Sat 01:20:39 PM 36.1011 -114.7364 224° Southwest 453 521 38,000  Level Los Center
Sat 01:21:53 PM 36.0106 -114.8450 224° Southwest 450 518 38,000  Level Los Center
Sat 01:23:08 PM 35.9067 -114.9797 226° Southwest 448 516 38,000 -391 Level Los Center
Sat 01:24:11 PM 35.8047 -115.1197 228° Southwest 452 520 37,100 -912 Descending Los Center
Sat 01:25:13 PM 35.7214 -115.2344 228° Southwest 449 517 36,100 -532 Descending Los Center
Sat 01:26:15 PM 35.6122 -115.3828 228° Southwest 480 552 36,000 -48 Descending Los Center
Sat 01:27:17 PM 35.5206 -115.5056 227° Southwest 484 557 36,000  Level Los Center
Sat 01:28:19 PM 35.4408 -115.6142 228° Southwest 482 555 36,000  Level Los Center
Sat 01:29:21 PM 35.3486 -115.7364 227° Southwest 488 562 36,000 -88 Level Los Center
Sat 01:30:35 PM 35.2394 -115.8828 228° Southwest 484 557 35,800 -1,401 Descending Los Center
Sat 01:31:38 PM 35.1289 -116.0272 227° Southwest 486 559 32,800 -2,688 Descending Los Center
Sat 01:32:40 PM 35.0361 -116.1503 227° Southwest 490 564 30,200 -2,613 Descending Los Center
Sat 01:33:42 PM 34.9414 -116.2747 227° Southwest 497 572 27,400 -2,661 Descending Los Center
Sat 01:34:44 PM 34.8436 -116.4017 227° Southwest 508 585 24,700 -2,613 Descending Los Center
Sat 01:35:46 PM 34.7889 -116.5461 245° Southwest 474 545 22,000 -2,274 Descending Los Center
Sat 01:36:48 PM 34.7703 -116.7322 263° West 461 531 20,000 -945 Descending Los Center
Sat 01:37:53 PM 34.7558 -116.8869 264° West 460 529 20,000  Level Los Center
Sat 01:38:53 PM 34.7397 -117.0406 263° West 458 527 20,000  Level Los Center
Sat 01:39:54 PM 34.7239 -117.1931 263° West 453 521 20,000  Level Los Center
Sat 01:40:56 PM 34.7078 -117.3461 263° West 453 521 20,000 -384 Level Los Center
Sat 01:41:59 PM 34.6917 -117.5003 263° West 456 525 19,200 -484 Descending Los Center
Sat 01:43:00 PM 34.6783 -117.6244 263° West 460 529 19,000 -960 Descending Los Center
Sat 01:44:04 PM 34.6556 -117.8325 262° West 437 503 17,200 -2,102 Descending Los Center
Sat 01:45:17 PM 34.6428 -117.9617 263° West 389 448 14,200 -2,889 Descending Los Center
Sat 01:46:19 PM 34.6258 -118.0856 261° West 309 356 10,700 -3,000 Descending Los Center
Sat 01:47:21 PM 34.5914 -118.1881 248° West 298 343 8,000 -1,306 Descending Los Center
Sat 01:48:23 PM 34.5608 -118.2747 247° West 284 327 8,000  Level Los Center
Sat 01:49:25 PM 34.5317 -118.3628 248° West 286 329 8,000 -48 Level Los Center
Sat 01:50:27 PM 34.5014 -118.4494 247° West 281 323 7,900 -453 Descending Los Center
Sat 01:51:11 PM 34.4547 -118.4969 220° Southwest 261 300 7,200 -1,161 Descending Los Center
Sat 01:52:00 PM 34.4117 -118.5556 228° Southwest 278 320 6,100 -1,333 Descending Los Center
Sat 01:52:32 PM 34.3933 -118.5969 242° Southwest 273 314 5,400 -766 Descending Los Center
Sat 01:53:34 PM 34.3433 -118.6650 228° Southwest 272 313 4,900 -316 Descending Los Center
Sat 01:54:07 PM 34.3086 -118.7017 221° Southwest 267 307 4,900  Level Los Center
Sat 01:54:55 PM 34.2706 -118.7533 228° Southwest 259 298 4,900 -264 Level Los Center
Sat 01:55:38 PM 34.2467 -118.7989 238° Southwest 268 308 4,500 -857 Descending Los Center
Sat 01:56:40 PM 34.2342 -118.8733 259° West 229 264 3,400 -871 Descending Los Center
Sat 01:57:42 PM 34.2081 -118.9467 247° West 226 260 2,700 -677 Descending Los Center
Sat 01:59:00 PM 34.2000 -119.0833 259° West  Level FlightAware
Sat 02:06:00 PM 34.2137 -119.0944 259° West  Level Estimated
Sat 02:07:00 PM 34.2137 -119.0944 259° West  Level Estimated
Sat 02:08:00 PM 34.2137 -119.0944 259° West  Level Estimated
Sat 02:09:00 PM 34.2137 -119.0944 259° West  Level Estimated

Login

Don't have an account? Register now (free) for customized features, flight alerts, and more!